Regional Weather Roundup
Issued by NWS

Home | Current Version | Previous Version | Text Only | Print | Product List | Glossary Off
Versions: 1 2 3 4 5 6 7 8 9 10 11 12 13 14 15 16 17 18 19 20 21 22 23 24 25 26 27 28 29 30 31 32 33 34 35 36 37 38 39 40 41 42 43 44 45 46 47 48 49 50

366
ASUS44 KLIX 141905
RWRLA
LOUISIANA WEATHER ROUNDUP
NATIONAL WEATHER SERVICE NEW ORLEANS LA
200 PM CDT SUN SEP 14 2014

NOTE: "FAIR" INDICATES FEW OR NO CLOUDS BELOW 12,000 FEET WITH NO
      SIGNIFICANT WEATHER AND/OR OBSTRUCTIONS TO VISIBILITY.
      SKY/WX - SKY CONDITION AND SIGNIFICANT WEATHER.
      TMP - AIR TEMPERATURE.    DP   - DEWPOINT TEMPERATURE.
      RH  - RELATIVE HUMIDITY.  PRES - PRESSURE.
      HX  - HEAT INDEX.         WCI  - WIND CHILL INDEX.

*  THESE STATIONS ARE NOT NWS OR FAA STATIONS AND ARE NOT UNDER
   NWS QUALITY CONTROL.

LAZ040-048-061>063-065-066-069-142000-
SOUTHEAST LOUISIANA

CITY           SKY/WX    TMP DP  RH WIND       PRES   REMARKS
N.O. AUDUBON     N/A     88  73  61 MISG        N/A  HX  96
N.O. INTL ARPT MOSUNNY   86  71  60 N12       30.08F
N.O. LAKEFRONT SUNNY     85  73  67 N6        30.09F
N.O. DOWNTOWN* FAIR      86  70  58 N8        30.09F
SLIDELL        SUNNY     88  72  58 NE5       30.07F
BATON ROUGE    PTSUNNY   84  71  65 N8        30.10F
BOOTHVILLE     PTSUNNY   80  76  87 NW5       30.08S
BELLE CHASSE   PTSUNNY   88  71  57 E9        30.07F
BOGALUSA*        N/A     87  71  58 NE5       30.10F
GALLIANO*      NOT AVBL
NEW ROADS*     CLOUDY    78  70  75 N9        30.11F
GONZALES*      FAIR      85  75  72 N5        30.08F
HAMMOND*       SUNNY     88  70  55 N6        30.10F
HOUMA*         MOSUNNY   88  72  58 NE9       30.07F
PORT FOURCHON* PTCLDY    86  77  74 NE17G24   30.09S HX  97

$$

LAZ041-044-053-054-142000-
SOUTHWEST LOUISIANA

CITY           SKY/WX    TMP DP  RH WIND       PRES   REMARKS
LAKE CHARLES   CLOUDY    76  67  73 NE12      30.11F
LAFAYETTE      CLOUDY    78  70  76 NE9       30.10F
PATTERSON      MOSUNNY   84  75  74 NE8       30.10F
SALT POINT       N/A     86  74  67 VRB5      30.06F
NEW IBERIA     CLOUDY    80  71  74 NE12      30.11F
CHENAULT AIRPK CLOUDY    73  66  78 N10       30.13F

$$

LAZ027-028-142000-
CENTRAL LOUISIANA

CITY           SKY/WX    TMP DP  RH WIND       PRES   REMARKS
FORT POLK      PTSUNNY   72  65  78 N8        30.15F
ALEXANDRIA INT CLOUDY    76  66  71 VRB3      30.13F
ALEXANDRIA     CLOUDY    76  65  68 VRB5      30.15F

$$

LAZ001-002-142000-
NORTHWEST LOUISIANA

CITY           SKY/WX    TMP DP  RH WIND       PRES   REMARKS
SHREVEPORT     PTSUNNY   81  61  50 NE7       30.16F
BARKSDALE AFB  SUNNY     81  62  51 VRB5      30.16F
DTN SHREVEPORT SUNNY     80  63  55 VRB6      30.16F

$$

LAZ014-016-142000-
NORTHEAST LOUISIANA

CITY           SKY/WX    TMP DP  RH WIND       PRES   REMARKS
MONROE         CLOUDY    72  63  73 N8        30.19F
TALLULAH       SUNNY     81  66  60 MISG      30.15F

$$




USA.gov is the U.S. government's official web portal to all federal, state and local government web resources and services.